TimeCDT,TemperatureF,Dew PointF,Humidity,Sea Level PressureIn,VisibilityMPH,Wind Direction,Wind SpeedMPH,Gust SpeedMPH,PrecipitationIn,Events,Conditions,WindDirDegrees,DateUTC
12:53 AM,71.1,62.1,73,29.67,10.0,South,13.8,-,N/A,,Clear,180,2012-10-25 05:53:00
1:53 AM,72.0,61.0,68,29.65,10.0,South,17.3,25.3,N/A,,Scattered Clouds,190,2012-10-25 06:53:00
2:53 AM,71.1,61.0,70,29.65,10.0,South,19.6,26.5,N/A,,Partly Cloudy,190,2012-10-25 07:53:00
3:53 AM,71.1,60.1,68,29.62,10.0,South,16.1,25.3,N/A,,Clear,180,2012-10-25 08:53:00
4:53 AM,70.0,60.1,71,29.62,10.0,South,18.4,24.2,N/A,,Partly Cloudy,190,2012-10-25 09:53:00
5:53 AM,70.0,60.1,71,29.61,10.0,South,17.3,25.3,N/A,,Overcast,180,2012-10-25 10:53:00
6:53 AM,71.1,61.0,70,29.61,10.0,South,18.4,26.5,N/A,,Overcast,190,2012-10-25 11:53:00
7:53 AM,70.0,61.0,73,29.60,10.0,South,16.1,24.2,N/A,,Overcast,190,2012-10-25 12:53:00
8:04 AM,69.8,60.8,73,29.62,10.0,South,16.1,24.2,N/A,,Overcast,180,2012-10-25 13:04:00
8:53 AM,70.0,61.0,73,29.63,10.0,WSW,17.3,27.6,N/A,,Overcast,240,2012-10-25 13:53:00
8:58 AM,60.8,55.4,82,29.66,9.0,WNW,15.0,24.2,N/A,,Overcast,290,2012-10-25 13:58:00
9:10 AM,55.4,53.6,94,29.68,2.5,WNW,18.4,21.9,0.03,Rain,Light Rain,290,2012-10-25 14:10:00
9:18 AM,53.6,51.8,94,29.68,7.0,WNW,19.6,25.3,0.03,Rain,Light Rain,300,2012-10-25 14:18:00
9:36 AM,53.6,51.8,94,29.68,4.0,WNW,17.3,23.0,0.03,Rain,Light Rain,290,2012-10-25 14:36:00
9:53 AM,50.0,48.0,93,29.68,10.0,WNW,13.8,21.9,0.03,,Overcast,300,2012-10-25 14:53:00
10:43 AM,46.4,44.6,93,29.73,5.0,WNW,17.3,26.5,0.01,Rain,Light Rain,300,2012-10-25 15:43:00
10:50 AM,46.4,44.6,93,29.74,4.0,WNW,23.0,28.8,0.01,Rain,Light Rain,300,2012-10-25 15:50:00
10:53 AM,46.9,44.1,90,29.74,4.0,WNW,17.3,28.8,0.01,Rain,Light Rain,300,2012-10-25 15:53:00
11:53 AM,44.1,42.1,93,29.80,2.5,WNW,19.6,31.1,0.04,Rain,Light Rain,300,2012-10-25 16:53:00
12:01 PM,44.6,41.0,87,29.80,5.0,NW,24.2,32.2,N/A,Rain,Light Rain,310,2012-10-25 17:01:00
12:28 PM,42.8,41.0,93,29.81,10.0,NW,19.6,25.3,0.01,Rain,Light Rain,310,2012-10-25 17:28:00
12:53 PM,43.0,39.9,89,29.83,8.0,NW,20.7,32.2,0.01,,Overcast,310,2012-10-25 17:53:00
1:53 PM,41.0,37.9,89,29.88,10.0,NW,24.2,32.2,0.01,Rain,Light Rain,310,2012-10-25 18:53:00
2:05 PM,41.0,37.4,87,29.88,10.0,NW,21.9,29.9,0.00,Rain,Light Rain,310,2012-10-25 19:05:00
2:53 PM,41.0,37.9,89,29.91,10.0,NW,25.3,34.5,0.01,Rain,Light Rain,320,2012-10-25 19:53:00
3:05 PM,42.8,37.4,81,29.92,10.0,NW,24.2,35.7,0.00,Rain,Light Rain,320,2012-10-25 20:05:00
3:30 PM,42.8,37.4,81,29.94,10.0,NW,31.1,36.8,0.00,,Overcast,320,2012-10-25 20:30:00
3:53 PM,43.0,37.9,82,29.96,10.0,NW,23.0,31.1,0.00,,Overcast,320,2012-10-25 20:53:00
4:53 PM,44.1,37.0,76,29.99,10.0,NW,19.6,27.6,N/A,,Overcast,320,2012-10-25 21:53:00
5:53 PM,42.1,35.1,76,30.05,10.0,NW,23.0,28.8,N/A,,Overcast,310,2012-10-25 22:53:00
6:53 PM,41.0,33.1,73,30.10,10.0,NW,24.2,35.7,N/A,,Overcast,310,2012-10-25 23:53:00
7:53 PM,39.0,30.0,70,30.13,10.0,NW,24.2,35.7,N/A,,Overcast,320,2012-10-26 00:53:00
8:53 PM,39.0,28.9,67,30.18,10.0,NW,23.0,34.5,N/A,,Overcast,320,2012-10-26 01:53:00
9:53 PM,37.9,28.0,68,30.22,10.0,NNW,23.0,-,N/A,,Overcast,330,2012-10-26 02:53:00
10:53 PM,37.9,27.0,65,30.25,10.0,NNW,24.2,34.5,N/A,,Overcast,330,2012-10-26 03:53:00
11:31 PM,37.4,28.4,70,30.25,10.0,NNW,20.7,26.5,N/A,,Overcast,330,2012-10-26 04:31:00
11:53 PM,37.4,28.4,70,30.25,10.0,NNW,17.3,26.5,N/A,,Overcast,330,2012-10-26 04:53:00